Location: Bucharest
(44.4268°N, 26.1025°E)
Time: 09:03:01
(UTC+03:00)

Oscar 19 - Pass Details

Date: 05 July 2022
Orbit: 773 x 790 km, 98.8° (Epoch: 12 August)

Event Time Altitude Azimuth Distance (km) Brightness Sun altitude
Rises 04:34:56 0° 17° (NNE) 3,260 15.1 -9.4°
Reaches altitude 10° 04:37:18 10° 21° (NNE) 2,328 14.3 -9.1°
Maximum altitude 04:42:22 59° 101° (ESE) 889 11.2 -8.5°
Drops below altitude 10° 04:47:24 10° 181° (S) 2,314 12.7 -7.8°
Sets 04:49:44 0° 185° (S) 3,238 13.4 -7.5°
Enters shadow 04:49:45 - 185° (S) 3,248 13.4 -7.5°
